Location: Antin
(43.3330°N, 0.2804°E)
Time: 08:11:30
(UTC+00:00)

SME Rocket - Pass Details

Date: 05 June 2022
Orbit: 551 x 2650 km, 99.9° (Epoch: 06 July)

Event Time Altitude Azimuth Distance (km) Brightness Sun altitude
Exits shadow 01:49:59 38° 222° (SW) 1,131 3.9 -19.2°
Maximum altitude 01:51:13 46° 263° (W) 1,049 3.9 -19.1°
Drops below altitude 10° 01:57:06 10° 336° (NNW) 2,893 7.0 -18.6°
Sets 02:00:19 0° 342° (NNW) 4,174 7.9 -18.3°
